CW3186 Weather Reports


Display with metric or nautical units.
time (UTC)temp
F
wind
direction
speed
MPH
gust
MPH
rain 1hr
in
rain 24hr
in
rain mn
in
humidity
%
barometer
mb
20260507045006 55 171 0.0 1.0 0.00 0.00 0.00 82 1021.3
20260507044534 55 171 0.0 5.0 0.00 0.00 0.00 82 1021.4
20260507044011 55 171 1.0 5.0 0.00 0.00 0.00 82 1021.5
20260507043507 55 212 1.0 5.0 0.00 0.00 0.00 82 1021.4
20260507043006 55 182 1.0 2.0 0.00 0.00 0.00 81 1021.4
20260507042507 55 150 0.0 2.0 0.00 0.00 0.00 81 1021.3
20260507042003 55 150 0.0 2.0 0.00 0.00 0.00 81 1021.4
20260507041507 55 132 0.0 2.0 0.00 0.00 0.00 81 1021.3
20260507041003 55 220 0.0 2.0 0.00 0.00 0.00 81 1021.3
20260507040504 55 220 0.0 1.0 0.00 0.00 0.00 81 1021.3
20260507040014 55 220 0.0 2.0 0.00 0.00 0.00 80 1021.3
20260507035507 55 220 0.0 2.0 0.00 0.00 0.00 80 1021.3
20260507035007 56 220 0.0 2.0 0.00 0.00 0.00 80 1021.2
20260507034519 56 220 0.0 2.0 0.00 0.00 0.00 80 1021.2
20260507034007 56 220 0.0 2.0 0.00 0.00 0.00 80 1021.2
20260507033507 56 220 0.0 2.0 0.00 0.00 0.00 80 1021.1
20260507033020 56 171 0.0 2.0 0.00 0.00 0.00 80 1021.1
20260507032508 56 157 0.0 2.0 0.00 0.00 0.00 79 1021.1
20260507032011 56 241 0.0 2.0 0.00 0.00 0.00 79 1021.1
20260507031505 56 264 0.0 2.0 0.00 0.00 0.00 79 1021.0
20260507031003 56 227 0.0 3.0 0.00 0.00 0.00 79 1021.0
20260507030505 56 261 1.0 3.0 0.00 0.00 0.00 78 1021.0
20260507030014 56 209 0.0 2.0 0.00 0.00 0.00 79 1021.0
20260507025504 56 209 0.0 2.0 0.00 0.00 0.00 79 1020.9
20260507025004 56 209 0.0 2.0 0.00 0.00 0.00 78 1020.9
20260507024518 56 252 0.0 2.0 0.00 0.00 0.00 78 1020.9
20260507024006 56 208 0.0 5.0 0.00 0.00 0.00 78 1020.9
20260507023505 56 196 0.0 5.0 0.00 0.00 0.00 78 1020.8
20260507023020 57 153 1.0 4.0 0.00 0.00 0.00 78 1020.8
20260507022507 57 146 0.0 3.0 0.00 0.00 0.00 78 1020.7
20260507022011 57 266 0.0 3.0 0.00 0.00 0.00 78 1020.8
20260507021525 57 273 0.0 3.0 0.00 0.00 0.00 77 1020.7
20260507021010 57 229 1.0 4.0 0.00 0.00 0.00 77 1020.7
20260507020504 57 205 1.0 4.0 0.00 0.00 0.00 77 1020.7
20260507020009 57 281 0.0 4.0 0.00 0.00 0.00 77 1020.7
20260507015504 57 255 1.0 4.0 0.00 0.00 0.00 77 1020.7
20260507015007 57 211 1.0 3.0 0.00 0.00 0.00 77 1020.7
20260507014514 57 208 0.0 3.0 0.00 0.00 0.00 77 1020.7
20260507014003 57 190 0.0 2.0 0.00 0.00 0.00 77 1020.7
20260507013504 57 173 0.0 4.0 0.00 0.00 0.00 78 1020.7
20260507013017 57 207 1.0 4.0 0.00 0.00 0.00 78 1020.8
20260507012511 57 169 0.0 3.0 0.00 0.00 0.00 78 1020.8
20260507012007 57 165 1.0 2.0 0.00 0.00 0.00 78 1020.8
20260507011528 57 201 0.0 2.0 0.00 0.00 0.00 78 1020.8
20260507011012 56 189 1.0 4.0 0.00 0.00 0.00 79 1020.8
20260507010509 56 144 0.0 4.0 0.00 0.00 0.00 79 1020.8
20260507010023 56 192 1.0 6.0 0.00 0.00 0.00 79 1020.9
20260507005513 56 113 2.0 9.0 0.00 0.00 0.00 78 1020.9
20260507005008 56 109 0.0 9.0 0.00 0.00 0.00 78 1021.0
20260507004512 57 296 1.0 7.0 0.00 0.00 0.00 78 1020.9
20260507004007 57 103 1.0 7.0 0.00 0.00 0.00 78 1020.9
20260507003511 57 184 1.0 7.0 0.00 0.00 0.00 77 1020.9
20260507003017 57 167 2.0 7.0 0.00 0.00 0.00 76 1020.9
20260507002506 57 309 1.0 5.0 0.00 0.00 0.00 76 1020.9
20260507002009 57 123 1.0 6.0 0.00 0.00 0.00 76 1020.9
20260507001523 57 202 2.0 5.0 0.00 0.00 0.00 75 1020.9
20260507001006 57 115 1.0 4.0 0.00 0.00 0.00 76 1020.9
20260507000507 57 192 0.0 4.0 0.00 0.00 0.00 76 1020.9
20260507000027 57 192 2.0 4.0 0.00 0.00 0.00 75 1020.9
20260506235509 57 188 1.0 5.0 0.00 0.00 0.00 75 1020.9
20260506235008 57 150 1.0 5.0 0.00 0.00 0.00 75 1020.9
20260506234525 58 189 1.0 4.0 0.00 0.00 0.00 75 1021.0
20260506234010 58 223 1.0 9.0 0.00 0.00 0.00 75 1020.9
20260506233505 58 289 2.0 9.0 0.00 0.00 0.00 75 1021.0
20260506233012 57 302 1.0 9.0 0.00 0.00 0.00 75 1020.9
20260506232506 57 192 2.0 9.0 0.00 0.00 0.00 74 1020.9
20260506232008 57 229 1.0 5.0 0.00 0.00 0.00 75 1021.0
20260506231519 57 266 1.0 8.0 0.00 0.00 0.00 75 1021.0
20260506231008 57 210 2.0 8.0 0.00 0.00 0.00 74 1020.9
20260506230505 57 283 1.0 6.0 0.00 0.00 0.00 74 1021.0
20260506230023 58 202 3.0 7.0 0.00 0.00 0.00 73 1021.0
20260506225507 58 197 1.0 7.0 0.00 0.00 0.00 73 1021.0
20260506225008 58 293 2.0 7.0 0.00 0.00 0.00 72 1021.0
20260506224524 58 214 1.0 7.0 0.00 0.00 0.00 73 1021.0
20260506224008 58 198 1.0 9.0 0.00 0.00 0.00 71 1021.0
20260506223508 59 59 1.0 9.0 0.00 0.00 0.00 71 1021.0
20260506223026 59 268 1.0 7.0 0.00 0.00 0.00 70 1021.0
20260506222505 59 15 1.0 7.0 0.00 0.00 0.00 71 1021.0
20260506222006 59 301 0.0 7.0 0.00 0.00 0.00 71 1021.1
20260506221515 58 101 1.0 7.0 0.00 0.00 0.00 71 1021.1
20260506221011 58 171 2.0 7.0 0.00 0.00 0.00 72 1021.2
20260506220503 58 145 2.0 7.0 0.00 0.00 0.00 71 1021.1
20260506220005 58 204 1.0 6.0 0.00 0.00 0.00 71 1021.3
20260506215503 58 55 1.0 6.0 0.00 0.00 0.00 71 1021.2
20260506215003 58 115 2.0 6.0 0.00 0.00 0.00 71 1021.2
20260506214506 58 209 3.0 6.0 0.00 0.00 0.00 70 1021.1
20260506214003 58 248 1.0 8.0 0.00 0.00 0.00 72 1021.3
20260506213503 58 279 1.0 8.0 0.00 0.00 0.00 73 1021.2
20260506213014 58 292 2.0 7.0 0.00 0.00 0.00 73 1021.2
20260506212502 58 195 2.0 7.0 0.00 0.00 0.00 72 1021.3
20260506212006 58 276 1.0 6.0 0.00 0.00 0.00 74 1021.3
20260506211514 58 178 2.0 7.0 0.00 0.00 0.00 73 1021.3
20260506211007 58 299 1.0 7.0 0.00 0.00 0.00 73 1021.3
20260506210504 58 202 1.0 7.0 0.00 0.00 0.00 73 1021.2
20260506210021 58 276 2.0 5.0 0.00 0.00 0.00 72 1021.3
20260506205507 58 282 0.0 8.0 0.00 0.00 0.00 73 1021.2
20260506205003 58 92 0.0 8.0 0.00 0.00 0.00 73 1021.2
20260506204504 58 265 3.0 7.0 0.00 0.00 0.00 73 1021.1
20260506204005 58 142 2.0 5.0 0.00 0.00 0.00 73 1021.1
20260506203504 58 115 1.0 6.0 0.00 0.00 0.00 73 1021.2
20260506203009 57 178 2.0 7.0 0.00 0.00 0.00 74 1021.2
20260506202504 57 153 0.0 7.0 0.00 0.00 0.00 76 1021.1
20260506202004 57 298 1.0 5.0 0.00 0.00 0.00 77 1021.1
20260506201512 57 338 1.0 10.0 0.00 0.00 0.00 77 1021.1
20260506201005 56 240 2.0 10.0 0.00 0.00 0.00 77 1021.2
20260506200505 56 209 2.0 5.0 0.00 0.00 0.00 77 1021.1
20260506200024 56 198 1.0 5.0 0.00 0.00 0.00 78 1021.1
20260506195506 56 219 0.0 3.0 0.00 0.00 0.00 79 1021.1
20260506195009 56 219 2.0 7.0 0.00 0.00 0.00 80 1021.0
20260506194518 56 118 0.0 7.0 0.00 0.00 0.00 81 1021.0
20260506194008 56 150 3.0 7.0 0.00 0.00 0.00 80 1021.0
20260506193502 55 261 1.0 6.0 0.00 0.00 0.00 82 1021.0
20260506193006 55 175 1.0 6.0 0.00 0.00 0.00 82 1021.0
20260506192504 55 137 0.0 3.0 0.00 0.00 0.00 83 1021.0
20260506192004 55 161 1.0 6.0 0.00 0.00 0.00 84 1021.0
20260506191510 55 210 1.0 6.0 0.00 0.00 0.00 84 1020.9
20260506191004 55 157 1.0 4.0 0.00 0.00 0.00 85 1020.9
20260506190505 55 175 2.0 4.0 0.00 0.00 0.00 85 1020.9
20260506190012 55 172 0.0 4.0 0.00 0.00 0.00 88 1020.8
20260506185505 54 148 0.0 4.0 0.00 0.00 0.00 88 1020.9
20260506185004 54 196 1.0 5.0 0.00 0.00 0.00 89 1020.9
20260506184517 54 319 0.0 6.0 0.00 0.00 0.00 89 1020.9
20260506184007 54 125 1.0 6.0 0.00 0.00 0.00 90 1020.9
20260506183509 54 219 0.0 3.0 0.00 0.00 0.00 90 1021.0
20260506183022 54 313 1.0 2.0 0.00 0.00 0.00 89 1020.9
20260506182506 54 171 0.0 2.0 0.00 0.00 0.00 90 1020.9
20260506182006 54 137 0.0 5.0 0.00 0.00 0.00 90 1020.8
20260506181506 53 93 0.0 7.0 0.00 0.00 0.00 90 1020.9
20260506181004 53 147 1.0 7.0 0.00 0.00 0.00 90 1020.9
20260506180506 53 204 1.0 4.0 0.00 0.00 0.00 90 1020.9
20260506180012 53 255 1.0 5.0 0.00 0.00 0.00 90 1020.7
20260506175504 53 270 0.0 5.0 0.00 0.00 0.00 91 1020.6
20260506175004 53 203 1.0 7.0 0.00 0.00 0.00 91 1020.4
20260506174513 53 161 2.0 7.0 0.00 0.00 0.00 90 1020.5
20260506174005 54 171 1.0 4.0 0.00 0.00 0.00 90 1020.5
20260506173508 54 173 1.0 4.0 0.00 0.00 0.00 90 1020.5
20260506173019 54 168 0.0 4.0 0.00 0.00 0.00 90 1020.6
20260506172509 54 124 2.0 4.0 0.00 0.00 0.00 89 1020.6
20260506172006 54 188 0.0 4.0 0.00 0.00 0.00 89 1020.9
20260506171522 54 216 1.0 4.0 0.00 0.00 0.00 89 1020.6
20260506171008 54 188 0.0 3.0 0.00 0.00 0.00 88 1020.6
20260506170504 54 311 0.0 3.0 0.00 0.00 0.00 88 1020.8
20260506170011 54 166 1.0 3.0 0.00 0.00 0.00 87 1020.7
20260506165504 54 243 0.0 2.0 0.00 0.00 0.00 86 1020.6
20260506165005 54 259 0.0 3.0 0.00 0.00 0.00 86 1020.6
20260506164514 54 164 0.0 6.0 0.00 0.00 0.00 86 1020.4
20260506164009 54 286 2.0 6.0 0.00 0.00 0.00 86 1020.5
20260506163508 54 194 1.0 2.0 0.00 0.00 0.00 87 1020.6
20260506163031 54 223 0.0 6.0 0.00 0.00 0.00 87 1020.4
20260506162506 54 215 2.0 6.0 0.00 0.00 0.00 87 1020.3
20260506162008 54 165 0.0 4.0 0.00 0.00 0.00 88 1020.3
20260506161522 53 199 1.0 5.0 0.00 0.00 0.00 88 1020.2
20260506161009 53 246 1.0 6.0 0.00 0.00 0.00 90 1020.3
20260506160514 53 128 1.0 6.0 0.00 0.00 0.00 91 1020.2
20260506160023 53 221 1.0 5.0 0.00 0.00 0.00 91 1020.0
20260506155507 53 224 0.0 4.0 0.00 0.00 0.00 91 1020.1
20260506155007 53 112 1.0 6.0 0.00 0.00 0.00 91 1020.0
20260506154511 53 226 2.0 9.0 0.00 0.00 0.00 91 1020.1
20260506154010 53 137 1.0 9.0 0.00 0.00 0.00 90 1020.2
20260506153507 53 156 3.0 6.0 0.00 0.00 0.00 91 1020.2
20260506153015 53 148 2.0 6.0 0.00 0.00 0.00 91 1020.3
20260506152506 53 147 2.0 5.0 0.00 0.00 0.00 91 1020.4
20260506152009 53 169 1.0 3.0 0.00 0.00 0.00 92 1020.4
20260506151518 53 211 0.0 5.0 0.00 0.00 0.00 92 1020.4
20260506151008 53 207 0.0 5.0 0.00 0.00 0.00 92 1020.3
20260506150507 53 250 0.0 4.0 0.00 0.00 0.00 92 1020.2
20260506150023 52 181 1.0 5.0 0.00 0.00 0.00 92 1020.1
20260506145508 52 186 2.0 5.0 0.00 0.00 0.00 91 1020.0
20260506145006 53 117 2.0 5.0 0.00 0.00 0.00 91 1020.0
20260506144525 53 188 1.0 4.0 0.00 0.00 0.00 91 1020.1
20260506144010 53 187 2.0 5.0 0.00 0.00 0.00 91 1020.1
20260506143506 53 204 1.0 5.0 0.00 0.00 0.00 91 1020.1
20260506143017 53 216 0.0 2.0 0.00 0.00 0.00 90 1020.2
20260506142506 52 215 1.0 2.0 0.00 0.00 0.00 90 1020.1
20260506142009 53 202 1.0 3.0 0.00 0.00 0.00 90 1020.0
20260506141518 53 242 0.0 3.0 0.00 0.00 0.00 89 1020.1
20260506141008 53 301 0.0 3.0 0.00 0.00 0.00 89 1020.0
20260506140515 53 279 0.0 3.0 0.00 0.00 0.00 89 1019.8
20260506140024 53 210 0.0 2.0 0.00 0.00 0.00 89 1019.8
20260506135507 53 189 0.0 3.0 0.00 0.00 0.00 89 1019.8
20260506135006 53 174 0.0 3.0 0.00 0.00 0.00 89 1019.9
20260506134525 53 224 0.0 2.0 0.00 0.00 0.00 89 1020.0
20260506134013 53 244 0.0 5.0 0.00 0.00 0.00 89 1019.8
20260506133509 53 265 0.0 6.0 0.00 0.00 0.00 89 1019.7
20260506133024 53 148 2.0 6.0 0.00 0.00 0.00 89 1019.7
20260506132506 53 248 0.0 5.0 0.00 0.00 0.00 89 1019.8
20260506132007 53 210 1.0 5.0 0.00 0.00 0.00 89 1019.6
20260506131518 53 153 0.0 2.0 0.00 0.00 0.00 89 1019.7
20260506131008 53 231 1.0 2.0 0.00 0.00 0.00 89 1019.6
20260506130506 53 317 1.0 6.0 0.00 0.00 0.00 89 1019.7
20260506130006 53 190 1.0 8.0 0.00 0.00 0.00 89 1019.4
20260506125502 53 188 2.0 8.0 0.00 0.00 0.00 88 1019.1
20260506125005 53 191 2.0 4.0 0.00 0.00 0.00 88 1019.3
20260506124504 53 177 0.0 4.0 0.00 0.00 0.00 88 1019.4
20260506123505 53 171 2.0 5.0 0.00 0.00 0.00 88 1019.3
20260506123010 53 161 1.0 5.0 0.00 0.00 0.00 88 1019.3
20260506122507 53 106 0.0 6.0 0.00 0.00 0.00 88 1019.2
20260506122003 53 196 2.0 6.0 0.00 0.00 0.00 88 1019.2
20260506121512 53 273 2.0 7.0 0.00 0.00 0.00 88 1019.2
20260506121006 53 182 2.0 7.0 0.00 0.00 0.00 88 1019.1
20260506120511 53 184 1.0 4.0 0.00 0.00 0.00 88 1019.2
20260506120020 53 168 0.0 2.0 0.00 0.00 0.00 88 1019.1
20260506115507 53 168 0.0 5.0 0.00 0.00 0.00 88 1019.2
20260506115004 53 240 0.0 5.0 0.00 0.00 0.00 88 1019.2
20260506114503 53 175 1.0 5.0 0.00 0.00 0.00 88 1019.1
20260506114004 53 211 1.0 5.0 0.00 0.00 0.00 88 1019.0
20260506113503 53 235 1.0 3.0 0.00 0.00 0.00 88 1019.0
20260506113014 53 205 0.0 2.0 0.00 0.00 0.00 88 1018.8
20260506112505 53 202 1.0 2.0 0.00 0.00 0.00 88 1018.8
20260506112004 53 229 0.0 5.0 0.00 0.00 0.00 88 1018.7
20260506111509 53 260 1.0 4.0 0.00 0.00 0.00 88 1018.8
20260506111004 53 215 1.0 3.0 0.00 0.00 0.00 88 1018.7
20260506110504 53 141 1.0 3.0 0.00 0.00 0.00 88 1018.7
20260506110016 53 195 0.0 2.0 0.00 0.00 0.00 88 1018.7
20260506105512 53 219 1.0 2.0 0.00 0.00 0.00 88 1018.6
20260506105007 53 302 1.0 3.0 0.00 0.00 0.00 88 1018.5
20260506104544 53 199 1.0 3.0 0.00 0.00 0.00 88 1018.5
20260506103503 53 103 1.0 4.0 0.00 0.00 0.00 88 1018.5
20260506103004 53 169 0.0 4.0 0.00 0.00 0.00 88 1018.4
20260506102504 53 254 0.0 2.0 0.00 0.00 0.00 88 1018.3
20260506102004 53 254 0.0 2.0 0.00 0.00 0.00 88 1018.4
20260506101510 53 233 0.0 4.0 0.00 0.00 0.00 88 1018.4
20260506101008 53 176 1.0 4.0 0.00 0.00 0.00 88 1018.4
20260506100504 53 216 1.0 4.0 0.00 0.00 0.00 88 1018.3
20260506100013 53 228 1.0 3.0 0.00 0.00 0.00 89 1018.3
20260506095504 53 256 0.0 2.0 0.00 0.00 0.00 89 1018.3
20260506095005 53 221 0.0 2.0 0.00 0.00 0.00 89 1018.1
20260506094007 52 181 0.0 3.0 0.00 0.00 0.00 90 1018.0
20260506092507 52 193 0.0 2.0 0.00 0.00 0.00 90 1018.0
20260506092004 52 184 0.0 2.0 0.00 0.00 0.00 90 1017.9
20260506091508 52 252 0.0 2.0 0.00 0.00 0.00 90 1017.9
20260506091003 52 239 0.0 2.0 0.00 0.00 0.00 89 1017.8
20260506090504 52 244 0.0 4.0 0.00 0.00 0.00 89 1017.8
20260506090011 52 172 0.0 4.0 0.00 0.00 0.00 89 1017.8
20260506085505 52 221 0.0 2.0 0.00 0.00 0.00 89 1017.7
20260506084517 53 259 0.0 2.0 0.00 0.00 0.00 89 1017.6
20260506083507 53 212 0.0 2.0 0.00 0.00 0.00 89 1017.4
20260506083019 53 212 0.0 2.0 0.00 0.00 0.00 89 1017.3
20260506082511 53 212 0.0 2.0 0.00 0.00 0.00 89 1017.3
20260506081524 53 186 0.0 2.0 0.00 0.00 0.00 89 1017.3
20260506080504 53 186 0.0 2.0 0.00 0.00 0.00 89 1017.2
20260506073510 54 220 0.0 2.0 0.00 0.00 0.00 88 1017.1
20260506073018 54 220 0.0 2.0 0.00 0.00 0.00 88 1017.1
20260506071524 54 220 0.0 0.0 0.00 0.00 0.00 87 1017.1
20260506070507 54 220 0.0 0.0 0.00 0.00 0.00 86 1017.1
20260506062011 55 293 0.0 3.0 0.00 0.00 0.00 86 1016.8
20260506061520 55 219 0.0 0.0 0.00 0.00 0.00 86 1016.8
20260506061007 55 219 0.0 2.0 0.00 0.00 0.00 86 1016.7
20260506051008 57 188 0.0 2.0 0.00 0.00 0.00 84 1016.3